Wind_Speed
2 3 3 4 4 5 6 6 7 8 9 9 9 9 9 9 9 9 10 10 10 10 10 10 10 10 10 9 10 10 10 10 10 10 10 10 10 10 10 10 10 10 10
4 4 5 5 5 6 6 7 8 9 9 9 9 9 9 10 10 10 10 10 10 11 11 11 11 11 11 11 11 11 11 11 11 11 11 11 11 11 10 10 11 11 11
6 6 6 6 6 6 7 8 9 9 10 10 10 10 10 11 11 10 11 11 11 12 12 12 12 12 12 12 12 12 12 12 12 12 12 12 11 11 11 11 11 11 11
7 8 8 7 7 7 8 9 9 10 11 11 11 11 11 11 11 12 12 12 13 13 13 13 13 13 13 13 13 13 13 13 13 13 13 12 12 11 12 12 12 12 12
9 9 9 9 9 9 9 10 10 11 11 12 12 12 12 12 13 13 13 13 14 14 14 14 14 14 14 14 14 14 14 14 14 14 14 14 13 12 12 13 13 13 13
10 10 10 10 10 11 11 11 11 12 12 13 13 13 13 13 13 14 14 14 15 15 15 16 16 16 15 15 15 15 15 16 16 16 16 15 15 14 14 14 14 14 14
11 12 12 12 12 12 12 12 12 13 14 14 14 14 14 15 15 15 15 16 16 16 17 17 17 17 16 16 16 16 16 17 17 17 17 17 16 16 15 15 16 16 16
13 13 13 13 13 13 13 13 14 15 15 16 16 16 16 16 16 16 17 17 18 18 18 18 18 18 18 18 17 17 17 17 18 18 18 18 17 17 17 16 17 17 17
13 13 14 14 14 14 14 14 15 16 16 17 17 17 17 17 18 18 18 19 19 20 20 20 20 19 20 20 19 19 19 19 19 19 19 19 19 19 18 18 18 19 18
13 14 14 14 15 15 15 16 16 17 17 17 18 18 18 19 19 19 20 20 21 21 21 21 21 21 21 21 21 21 21 20 20 21 21 21 21 20 19 19 19 20 20
14 15 15 15 15 15 16 17 17 18 18 18 19 19 19 19 20 20 20 21 22 22 22 22 22 22 22 22 23 23 23 23 23 23 23 22 22 22 21 21 21 21 21
16 16 16 16 16 16 16 17 18 18 18 19 20 20 20 21 21 21 22 22 22 23 22 22 23 23 24 24 24 24 25 25 25 25 25 25 24 24 23 22 22 22 23
17 17 17 17 17 16 17 18 18 18 19 20 20 21 21 23 23 23 23 23 23 24 24 24 24 24 25 25 26 27 27 27 27 26 26 26 26 25 25 24 24 24 24
17 17 18 18 18 19 19 19 19 20 20 21 21 22 23 23 24 24 24 23 24 25 25 25 26 25 26 27 27 27 27 27 28 28 28 27 27 27 26 26 26 26 25
18 18 19 19 20 20 20 20 21 21 22 22 22 23 23 24 24 24 24 24 25 26 26 26 26 26 26 27 27 27 27 27 28 29 29 29 29 28 28 28 28 28 27
19 19 20 21 22 22 22 21 22 23 22 22 23 24 24 24 24 25 25 25 25 26 26 26 26 26 26 26 27 27 27 27 28 29 29 30 30 30 30 30 29 29 29
20 20 21 22 23 23 23 22 22 23 23 24 24 24 24 24 25 25 26 26 26 27 27 26 26 26 26 26 26 27 28 28 28 29 30 30 31 32 31 31 31 30 30
20 21 22 23 23 24 23 22 23 23 23 24 24 24 24 25 26 26 26 26 26 27 27 26 26 27 27 27 28 28 29 29 29 30 30 31 31 32 33 32 32 31 31
20 22 22 23 24 24 23 22 23 23 24 24 24 23 24 25 26 26 26 26 26 27 27 26 27 27 28 28 29 29 29 29 29 29 30 31 32 32 33 33 33 32 32
20 21 23 23 23 24 23 23 24 24 25 25 24 24 25 25 26 26 26 26 26 27 26 27 28 28 28 28 28 29 29 29 29 29 30 30 31 32 33 34 34 33 33
21 22 23 23 24 24 24 24 24 25 24 25 25 24 25 26 26 26 27 27 26 26 27 27 28 29 29 28 28 28 29 29 29 30 30 31 31 31 32 33 34 34 34
22 23 23 23 24 24 25 24 24 24 25 27 26 25 25 25 26 26 26 26 26 26 27 28 28 29 29 28 28 29 30 30 30 31 31 31 32 32 32 33 34 34 35
22 23 24 24 24 24 25 24 25 26 26 25 26 25 26 25 25 25 25 26 26 26 27 28 28 29 29 28 29 30 30 30 30 31 31 30 31 31 31 32 33 34 34
23 23 24 24 24 24 25 26 26 27 27 27 27 26 26 26 26 25 25 26 26 26 27 28 28 28 27 28 28 28 28 29 30 30 29 29 28 28 29 30 32 33 34
22 23 24 24 25 25 25 26 27 27 27 28 27 26 26 26 25 25 25 25 25 26 27 27 27 26 26 26 26 26 27 27 27 27 26 27 27 27 27 28 30 32 32
22 23 24 25 25 26 26 26 27 27 27 27 27 26 26 26 25 25 26 25 25 26 26 26 26 25 25 25 25 25 26 26 26 26 25 25 26 26 26 27 28 30 32
Wind_Direction
300 308 318 322 324 325 322 319 316 314 314 317 322 327 330 330 331 331 329 326 325 323 322 322 319 313 305 301 297 294 293 289 288 285 282 279 276 274 272 270 269 262 258
294 293 298 308 309 313 316 313 311 312 313 315 318 322 324 325 325 323 322 320 319 317 316 314 312 309 304 300 295 292 291 288 286 285 283 279 275 271 269 268 267 261 258
287 288 290 298 302 304 307 308 308 309 310 313 315 316 317 319 319 317 318 317 314 311 311 309 306 303 299 296 293 290 287 285 283 282 281 277 275 272 269 266 264 260 259
285 286 289 293 296 299 300 302 305 307 308 309 309 311 312 313 314 313 312 312 309 306 305 304 302 300 298 293 289 287 285 282 282 281 279 275 272 269 267 266 264 259 258
284 286 287 291 293 294 296 297 301 304 305 307 308 307 308 308 309 309 307 306 305 304 302 300 298 297 294 291 287 284 282 279 277 277 276 272 269 265 263 263 262 259 257
281 282 285 290 292 291 290 293 297 301 303 305 305 304 304 306 307 305 304 303 302 302 301 298 296 295 292 289 286 283 282 279 277 276 275 271 268 266 263 260 259 258 255
279 280 284 285 287 288 289 291 295 299 300 301 302 301 301 301 302 303 302 301 300 301 300 297 293 293 292 290 287 284 281 279 278 276 275 270 267 266 265 261 259 257 256
279 281 285 285 286 288 289 291 293 297 299 300 300 298 297 297 298 299 299 299 301 302 301 299 295 293 291 290 287 283 281 278 277 276 275 271 268 265 262 261 259 257 258
279 280 289 287 287 287 289 290 293 296 297 298 298 296 294 294 295 296 296 297 298 298 298 297 296 294 291 289 287 284 280 278 276 275 275 273 269 266 263 260 259 259 257
284 285 288 288 284 286 290 293 294 295 295 296 296 295 295 295 295 293 294 295 297 297 297 295 294 293 291 289 286 284 281 277 275 274 274 273 270 267 264 262 260 260 257
280 283 285 288 285 287 288 290 292 294 293 294 295 294 293 295 294 293 292 294 297 297 297 296 294 292 291 289 286 284 281 278 274 273 272 271 270 268 266 264 262 259 258
280 281 283 287 287 286 287 288 290 292 292 293 294 294 292 293 294 294 293 294 295 295 296 295 293 293 291 289 288 286 283 280 276 274 271 270 269 268 267 265 262 259 258
280 281 280 284 283 282 285 287 289 291 292 294 294 294 294 294 294 293 292 291 292 293 294 293 292 291 291 290 288 285 283 280 278 276 273 269 267 266 266 264 263 261 258
276 278 276 277 278 281 283 285 286 290 291 291 291 292 293 293 293 291 290 290 291 293 293 293 292 291 291 291 289 286 283 280 277 276 273 269 267 266 265 263 261 260 259
275 275 273 276 278 280 283 284 284 286 289 290 290 291 291 292 292 292 291 291 292 293 294 294 293 292 292 291 290 288 285 283 280 277 273 269 265 263 263 261 260 259 258
274 273 274 276 279 281 284 285 286 286 288 290 290 290 291 292 292 292 291 291 292 294 295 295 294 293 292 292 290 288 285 284 282 278 274 269 265 262 260 258 258 258 257
274 274 275 277 281 283 284 283 284 285 287 290 291 291 292 292 291 291 290 290 292 294 294 294 294 294 292 292 291 288 285 283 281 278 274 272 268 264 260 257 256 257 256
275 274 275 276 280 282 281 282 285 287 288 289 290 290 292 293 293 292 291 292 293 294 294 293 294 293 293 291 289 288 285 283 281 279 275 272 269 265 262 258 256 256 255
273 275 278 279 281 282 280 283 286 289 291 290 291 291 293 293 293 293 293 293 293 292 293 293 293 293 293 291 290 288 287 285 282 280 278 274 270 266 262 260 257 256 255
277 278 277 278 279 283 282 284 288 291 291 292 292 290 293 294 293 292 294 294 292 292 292 293 293 293 293 292 290 289 289 287 284 282 280 276 272 267 262 260 257 255 254
276 277 277 277 277 280 281 283 288 290 290 289 290 290 292 294 293 292 293 293 292 292 294 295 296 295 293 292 291 290 289 288 284 282 280 278 274 269 264 259 257 255 254
277 279 278 277 278 280 280 282 285 287 285 288 290 290 292 295 293 293 294 294 293 293 296 298 298 297 295 292 291 291 292 289 287 285 282 279 275 271 267 261 257 255 254
279 279 278 278 278 280 281 280 283 284 287 288 288 291 292 294 292 290 294 295 295 294 296 299 299 300 297 294 292 291 292 290 289 287 284 280 275 271 267 261 257 255 254
280 279 279 279 279 282 283 282 283 284 286 286 287 289 291 292 291 291 296 297 296 296 298 300 301 302 297 294 293 293 293 292 290 288 286 282 277 272 268 263 257 254 253
278 278 279 278 280 282 283 285 284 284 284 285 286 287 290 291 291 293 297 298 298 298 299 301 302 302 299 296 296 296 295 294 293 291 288 284 281 276 270 265 259 254 252
278 279 279 279 279 280 282 284 285 286 284 286 288 288 290 292 292 294 297 299 300 299 299 300 303 302 301 300 299 297 297 296 294 292 287 283 280 279 274 270 263 257 254
Height
5904 5903 5903 5902 5902 5901 5901 5900 5900 5899 5898 5897 5896 5895 5894 5892 5891 5890 5890 5889 5888 5887 5886 5885 5884 5884 5883 5882 5882 5882 5881 5881 5880 5880 5879 5879 5878 5878 5878 5877 5877 5877 5877
5902 5902 5901 5901 5901 5900 5899 5899 5898 5897 5896 5895 5894 5893 5892 5890 5889 5889 5888 5887 5886 5885 5884 5883 5882 5882 5881 5880 5880 5879 5879 5878 5878 5877 5877 5876 5876 5876 5875 5875 5874 5875 5875
5901 5900 5900 5899 5899 5898 5898 5897 5896 5895 5894 5893 5892 5891 5890 5888 5887 5886 5886 5885 5884 5883 5882 5881 5880 5879 5878 5878 5877 5876 5876 5876 5875 5874 5874 5873 5873 5873 5873 5873 5872 5872 5872
5899 5898 5898 5897 5897 5896 5896 5895 5894 5893 5892 5891 5890 5889 5888 5886 5885 5884 5883 5882 5881 5880 5879 5878 5877 5876 5876 5875 5874 5874 5873 5873 5872 5871 5871 5870 5870 5870 5870 5870 5870 5870 5870
5897 5896 5896 5895 5895 5894 5893 5893 5892 5891 5890 5889 5888 5887 5885 5884 5883 5882 5881 5880 5879 5878 5876 5875 5875 5874 5873 5872 5871 5870 5870 5869 5869 5868 5868 5867 5867 5867 5867 5867 5867 5867 5867
5895 5894 5893 5893 5893 5892 5891 5890 5889 5888 5887 5886 5885 5884 5883 5882 5881 5879 5878 5877 5876 5875 5874 5873 5871 5870 5869 5869 5868 5867 5867 5866 5865 5865 5864 5864 5864 5864 5864 5864 5864 5864 5864
5892 5892 5891 5891 5890 5890 5888 5887 5887 5886 5885 5884 5883 5881 5880 5879 5878 5877 5876 5874 5873 5872 5870 5869 5868 5867 5866 5865 5864 5864 5863 5863 5862 5861 5861 5860 5860 5860 5860 5860 5861 5861 5861
5890 5889 5888 5888 5887 5887 5886 5885 5884 5883 5882 5881 5880 5878 5877 5876 5875 5873 5872 5871 5870 5868 5867 5866 5865 5864 5863 5862 5861 5860 5859 5858 5858 5857 5857 5856 5856 5856 5856 5856 5857 5857 5857
5887 5886 5886 5885 5884 5884 5883 5882 5881 5880 5879 5878 5876 5875 5874 5873 5871 5870 5869 5868 5866 5865 5863 5862 5861 5860 5859 5858 5857 5856 5855 5854 5854 5853 5853 5852 5852 5852 5852 5852 5852 5852 5852
5884 5884 5883 5882 5881 5880 5880 5879 5878 5877 5876 5874 5873 5872 5870 5869 5867 5866 5865 5864 5862 5861 5859 5858 5857 5855 5854 5853 5852 5851 5850 5849 5849 5848 5848 5848 5848 5847 5847 5848 5848 5848 5848
5881 5881 5881 5880 5879 5878 5877 5876 5875 5874 5872 5871 5870 5868 5867 5865 5864 5862 5861 5860 5858 5857 5855 5854 5852 5851 5849 5848 5847 5846 5845 5844 5843 5843 5843 5843 5843 5842 5842 5842 5843 5843 5843
5878 5878 5878 5877 5876 5875 5874 5873 5871 5870 5869 5868 5866 5865 5863 5862 5860 5858 5857 5856 5854 5852 5851 5849 5848 5846 5844 5843 5841 5840 5839 5838 5837 5837 5837 5837 5837 5837 5837 5837 5837 5838 5838
5875 5875 5874 5873 5873 5872 5871 5869 5868 5867 5865 5864 5862 5861 5859 5858 5856 5854 5853 5851 5849 5848 5846 5844 5842 5840 5839 5837 5835 5834 5833 5832 5831 5831 5830 5831 5831 5831 5831 5831 5831 5832 5833
5871 5871 5870 5870 5869 5868 5867 5866 5865 5863 5862 5860 5859 5857 5855 5853 5852 5850 5848 5846 5845 5843 5841 5838 5837 5835 5833 5831 5829 5827 5826 5825 5824 5823 5823 5824 5824 5824 5825 5825 5825 5826 5826
5868 5867 5867 5866 5865 5864 5863 5862 5861 5859 5858 5856 5854 5852 5851 5849 5847 5845 5843 5841 5839 5837 5835 5833 5831 5829 5827 5825 5823 5821 5819 5818 5817 5816 5816 5816 5817 5817 5818 5818 5819 5819 5820
5864 5863 5863 5862 5862 5861 5859 5858 5857 5855 5853 5852 5850 5848 5846 5844 5842 5840 5839 5837 5834 5832 5830 5827 5825 5823 5820 5818 5816 5814 5813 5811 5810 5808 5808 5808 5808 5809 5810 5811 5811 5812 5813
5860 5860 5859 5858 5858 5856 5855 5854 5852 5850 5849 5847 5845 5843 5841 5839 5837 5835 5833 5831 5829 5826 5824 5821 5819 5817 5814 5812 5810 5808 5806 5804 5803 5801 5800 5800 5800 5801 5802 5803 5804 5805 5805
5856 5855 5855 5854 5853 5852 5851 5850 5848 5846 5844 5842 5840 5838 5836 5834 5832 5830 5828 5825 5823 5820 5818 5815 5813 5811 5808 5806 5803 5801 5799 5797 5795 5794 5792 5792 5791 5792 5793 5794 5795 5797 5798
5851 5851 5850 5849 5848 5847 5846 5845 5843 5841 5839 5837 5835 5833 5831 5829 5827 5825 5822 5820 5817 5814 5812 5809 5807 5804 5802 5799 5796 5794 5791 5789 5787 5786 5785 5784 5783 5783 5784 5785 5787 5788 5790
5847 5846 5846 5844 5843 5842 5841 5839 5838 5836 5834 5831 5829 5828 5826 5824 5821 5819 5817 5814 5811 5808 5806 5803 5801 5798 5795 5792 5789 5787 5784 5782 5780 5778 5777 5775 5775 5775 5775 5776 5778 5780 5781
5842 5841 5840 5839 5838 5837 5836 5834 5833 5831 5829 5827 5824 5822 5820 5818 5815 5813 5811 5808 5805 5803 5800 5797 5794 5791 5788 5785 5783 5780 5777 5775 5772 5770 5768 5767 5766 5766 5766 5767 5768 5770 5772
5837 5836 5835 5834 5833 5831 5830 5829 5827 5825 5823 5822 5819 5817 5815 5812 5810 5807 5805 5802 5799 5797 5794 5791 5788 5785 5781 5778 5776 5773 5770 5768 5765 5762 5760 5758 5757 5757 5757 5758 5759 5761 5763
5832 5831 5830 5828 5827 5826 5825 5823 5822 5820 5818 5815 5814 5812 5809 5807 5804 5802 5799 5796 5793 5791 5788 5785 5781 5778 5774 5771 5768 5765 5762 5760 5757 5754 5751 5749 5748 5748 5748 5749 5750 5752 5754
5826 5825 5824 5823 5822 5820 5819 5818 5816 5814 5812 5810 5808 5806 5803 5800 5798 5796 5793 5790 5787 5784 5781 5778 5775 5770 5767 5764 5761 5758 5755 5752 5749 5746 5744 5741 5739 5739 5739 5739 5741 5743 5745
5820 5819 5818 5817 5816 5815 5814 5812 5810 5808 5806 5804 5801 5799 5797 5794 5792 5790 5787 5784 5781 5778 5775 5772 5768 5764 5760 5757 5754 5751 5748 5745 5741 5739 5736 5734 5732 5731 5730 5731 5731 5733 5735
5815 5813 5812 5811 5810 5809 5807 5806 5804 5802 5800 5798 5795 5792 5790 5788 5786 5783 5781 5778 5775 5772 5769 5766 5762 5758 5755 5751 5748 5744 5741 5738 5735 5732 5729 5727 5725 5723 5722 5722 5723 5724 5726